Location: Cedar Brake
(32.2526°N, 97.8459°W)
Time: 16:50:24
(UTC+00:00)

Cosmos 2360 Rocket - Pass Details

Date: 22 April 2026
Orbit: 831 x 845 km, 71.0° (Epoch: 9 May)

Event Time Altitude Azimuth Distance (km) Brightness Sun altitude
Rises 09:19:09 0° 342° (NNW) 3,407 5.6 -29.9°
Reaches altitude 10° 09:21:37 10° 344° (NNW) 2,469 4.9 -29.5°
Maximum altitude 09:27:16 72° 69° (ENE) 886 2.3 -28.5°
Enters shadow 09:28:59 45° 140° (SE) 1,128 2.8 -28.3°
